Orbital Elements at Epoch 2459200.5 (2020-Dec-17.0) TDB
Reference: JPL 18 (heliocentric ecliptic J2000)
Element | Value | Uncertainty (1-sigma) | Units |
e | .1875269882732291 | 3.2507e-08 | |
a | 2.363111175160109 | 1.0213e-08 | au |
q | 1.919964053527522 | 7.6712e-08 | au |
i | 1.294476328268156 | 4.2687e-06 | deg |
node | 13.69558635433719 | 0.00016995 | deg |
peri | 283.7867735417625 | 0.00017052 | deg |
M | 151.0046547345773 | 1.135e-05 | deg |
tp | 2458643.939357458889 (2019-Jun-09.43935746) | 4.2203e-05 | TDB |
period | 1326.858643311218 3.63 | 8.6015e-06 2.355e-08 | d yr |
n | .2713175226425089 | 1.7588e-09 | deg/d |
Q | 2.806258296792695 | 1.2128e-08 | au |
|
| | Orbit Determination Parameters
Additional Information
|